LVMGN SACO-SADF

Flight info

Callsign LVMGN
Flight time 1h 26m
Altitude 29000
Route UTRAX1G UTRAX UW24 SNT DCT TRINI
Aircraft SF50/L-SDGRWY/L

Departure

Time 2026-04-25 16:20
Airport Ingeniero Aeronáutico Ambrosio L.V. Taravella International Airport (SACO)

Arrival

Time 2026-04-25 17:46
Airport San Fernando Airport (SADF)
Time Latitude Longitude Altitude Speed Heading
2026-04-25 16:09 -31.31536 -64.21184 1576 ft 0 kts 269°
2026-04-25 16:16 -31.31536 -64.21185 1576 ft 0 kts 291°
2026-04-25 16:16 -31.31532 -64.21186 1576 ft 0 kts 27°
2026-04-25 16:16 -31.31531 -64.21177 1576 ft 2 kts 97°
2026-04-25 16:16 -31.31534 -64.21152 1576 ft 4 kts 96°
2026-04-25 16:17 -31.31541 -64.21114 1576 ft 5 kts 108°
2026-04-25 16:17 -31.31525 -64.21075 1576 ft 7 kts 17°
2026-04-25 16:17 -31.31474 -64.21036 1576 ft 11 kts 50°
2026-04-25 16:17 -31.31457 -64.20949 1576 ft 10 kts 101°
2026-04-25 16:18 -31.31491 -64.20875 1576 ft 10 kts 131°
2026-04-25 16:18 -31.31529 -64.20840 1576 ft 10 kts 147°
2026-04-25 16:18 -31.31573 -64.20822 1576 ft 0 kts 176°
2026-04-25 16:19 -31.31851 -64.20821 1576 ft 75 kts 179°
2026-04-25 16:19 -31.32530 -64.20815 1729 ft 111 kts 176°
2026-04-25 16:20 -31.34299 -64.20583 2400 ft 143 kts 159°
2026-04-25 16:20 -31.35035 -64.19798 2705 ft 152 kts 115°
2026-04-25 16:20 -31.35760 -64.17351 3323 ft 168 kts 112°
2026-04-25 16:21 -31.36334 -64.16133 3582 ft 179 kts 119°
2026-04-25 16:21 -31.37089 -64.14883 3852 ft 195 kts 125°
2026-04-25 16:21 -31.37964 -64.13635 4158 ft 206 kts 128°
2026-04-25 16:21 -31.38941 -64.12363 4463 ft 215 kts 130°
2026-04-25 16:22 -31.39986 -64.11070 4768 ft 223 kts 131°
2026-04-25 16:22 -31.41064 -64.09772 5069 ft 228 kts 132°
2026-04-25 16:22 -31.42194 -64.08433 5370 ft 235 kts 132°
2026-04-25 16:22 -31.43362 -64.07056 5676 ft 244 kts 132°
2026-04-25 16:23 -31.44586 -64.05620 5982 ft 251 kts 132°
2026-04-25 16:23 -31.45820 -64.04173 6280 ft 256 kts 132°
2026-04-25 16:23 -31.47085 -64.02692 6583 ft 260 kts 132°
2026-04-25 16:23 -31.48384 -64.01171 6886 ft 264 kts 132°
2026-04-25 16:24 -31.49677 -63.99655 7186 ft 266 kts 132°
2026-04-25 16:24 -31.50991 -63.98115 7486 ft 269 kts 132°
2026-04-25 16:24 -31.52323 -63.96552 7787 ft 272 kts 132°
2026-04-25 16:24 -31.53550 -63.94869 8091 ft 277 kts 124°
2026-04-25 16:25 -31.54698 -63.93034 8472 ft 279 kts 123°
2026-04-25 16:25 -31.55450 -63.91802 8696 ft 282 kts 123°
2026-04-25 16:25 -31.56969 -63.89296 9162 ft 286 kts 123°
2026-04-25 16:25 -31.58121 -63.87389 9535 ft 287 kts 123°
2026-04-25 16:26 -31.59275 -63.85475 9865 ft 290 kts 123°
2026-04-25 16:26 -31.60436 -63.83547 10192 ft 292 kts 123°
2026-04-25 16:26 -31.61602 -63.81609 10492 ft 295 kts 123°
2026-04-25 16:26 -31.62794 -63.79628 10797 ft 297 kts 124°
2026-04-25 16:27 -31.63985 -63.77646 11098 ft 299 kts 124°
2026-04-25 16:27 -31.65183 -63.75654 11399 ft 301 kts 124°
2026-04-25 16:27 -31.66382 -63.73658 11700 ft 302 kts 124°
2026-04-25 16:27 -31.67596 -63.71636 12003 ft 303 kts 124°
2026-04-25 16:28 -31.68807 -63.69617 12305 ft 304 kts 124°
2026-04-25 16:28 -31.70022 -63.67593 12607 ft 304 kts 124°
2026-04-25 16:28 -31.71248 -63.65548 12912 ft 305 kts 124°
2026-04-25 16:28 -31.72458 -63.63528 13213 ft 305 kts 124°
2026-04-25 16:29 -31.73680 -63.61488 13517 ft 306 kts 124°
2026-04-25 16:29 -31.74892 -63.59462 13818 ft 306 kts 125°
2026-04-25 16:29 -31.76112 -63.57422 14122 ft 306 kts 125°
2026-04-25 16:29 -31.77332 -63.55382 14425 ft 306 kts 125°
2026-04-25 16:30 -31.78554 -63.53336 14730 ft 306 kts 125°
2026-04-25 16:30 -31.79776 -63.51291 15035 ft 306 kts 125°
2026-04-25 16:30 -31.81000 -63.49240 15341 ft 306 kts 125°
2026-04-25 16:30 -31.82224 -63.47188 15647 ft 306 kts 125°
2026-04-25 16:31 -31.83445 -63.45139 15954 ft 306 kts 125°
2026-04-25 16:31 -31.84682 -63.43064 16265 ft 306 kts 125°
2026-04-25 16:31 -31.85895 -63.41027 16570 ft 306 kts 125°
2026-04-25 16:31 -31.87105 -63.38995 16874 ft 306 kts 125°
2026-04-25 16:32 -31.88334 -63.36936 17184 ft 305 kts 126°
2026-04-25 16:32 -31.89580 -63.34925 17491 ft 305 kts 126°
2026-04-25 16:32 -31.90822 -63.32938 17786 ft 305 kts 126°
2026-04-25 16:32 -31.92080 -63.30930 18086 ft 305 kts 126°
2026-04-25 16:33 -31.93336 -63.28923 18386 ft 305 kts 126°
2026-04-25 16:33 -31.94590 -63.26919 18685 ft 304 kts 126°
2026-04-25 16:33 -31.95834 -63.24931 18982 ft 304 kts 127°
2026-04-25 16:33 -31.97085 -63.22928 19284 ft 304 kts 127°
2026-04-25 16:34 -31.98333 -63.20931 19585 ft 303 kts 127°
2026-04-25 16:34 -31.99589 -63.18920 19887 ft 303 kts 127°
2026-04-25 16:34 -32.00831 -63.16929 20188 ft 302 kts 127°
2026-04-25 16:34 -32.02066 -63.14949 20487 ft 302 kts 127°
2026-04-25 16:35 -32.03309 -63.12956 20789 ft 302 kts 127°
2026-04-25 16:35 -32.04543 -63.10976 21090 ft 301 kts 127°
2026-04-25 16:35 -32.05787 -63.08979 21393 ft 301 kts 127°
2026-04-25 16:35 -32.07042 -63.06963 21701 ft 300 kts 127°
2026-04-25 16:36 -32.08269 -63.04992 22003 ft 300 kts 126°
2026-04-25 16:36 -32.09086 -63.03678 22205 ft 300 kts 126°
2026-04-25 16:36 -32.10716 -63.01055 22602 ft 299 kts 126°
2026-04-25 16:36 -32.11959 -62.99056 22900 ft 299 kts 126°
2026-04-25 16:37 -32.13169 -62.97106 23194 ft 298 kts 126°
2026-04-25 16:37 -32.14396 -62.95128 23489 ft 298 kts 126°
2026-04-25 16:37 -32.15617 -62.93161 23783 ft 298 kts 126°
2026-04-25 16:37 -32.16843 -62.91182 24080 ft 297 kts 125°
2026-04-25 16:38 -32.18051 -62.89233 24372 ft 297 kts 125°
2026-04-25 16:38 -32.19275 -62.87257 24669 ft 296 kts 125°
2026-04-25 16:38 -32.20478 -62.85312 24963 ft 296 kts 125°
2026-04-25 16:38 -32.21694 -62.83345 25262 ft 295 kts 126°
2026-04-25 16:39 -32.22887 -62.81416 25555 ft 294 kts 126°
2026-04-25 16:39 -32.24102 -62.79449 25856 ft 294 kts 126°
2026-04-25 16:39 -32.25295 -62.77519 26152 ft 293 kts 126°
2026-04-25 16:39 -32.26482 -62.75595 26447 ft 291 kts 126°
2026-04-25 16:40 -32.27697 -62.73627 26753 ft 290 kts 126°
2026-04-25 16:40 -32.28880 -62.71710 27052 ft 289 kts 126°
2026-04-25 16:40 -32.30052 -62.69807 27350 ft 287 kts 127°
2026-04-25 16:40 -32.31231 -62.67893 27653 ft 286 kts 127°
2026-04-25 16:41 -32.32386 -62.66018 27951 ft 284 kts 127°
2026-04-25 16:41 -32.33162 -62.64757 28153 ft 283 kts 127°
2026-04-25 16:41 -32.35820 -62.60436 28855 ft 277 kts 128°
2026-04-25 16:42 -32.36946 -62.58604 29115 ft 277 kts 128°
2026-04-25 16:42 -32.38106 -62.56717 29158 ft 288 kts 128°
2026-04-25 16:42 -32.39294 -62.54783 29161 ft 299 kts 128°
2026-04-25 16:42 -32.40544 -62.52747 29159 ft 310 kts 128°
2026-04-25 16:43 -32.43149 -62.48497 29154 ft 328 kts 128°
2026-04-25 16:43 -32.45870 -62.44054 29146 ft 343 kts 128°
2026-04-25 16:44 -32.48727 -62.39382 29138 ft 354 kts 128°
2026-04-25 16:44 -32.51640 -62.34614 29135 ft 362 kts 127°
2026-04-25 16:45 -32.54601 -62.29760 29126 ft 366 kts 127°
2026-04-25 16:45 -32.57588 -62.24858 29126 ft 370 kts 127°
2026-04-25 16:46 -32.60621 -62.19875 29126 ft 372 kts 127°
2026-04-25 16:46 -32.63124 -62.15756 29127 ft 374 kts 127°
2026-04-25 16:47 -32.66678 -62.09901 29129 ft 376 kts 127°
2026-04-25 16:47 -32.69725 -62.04874 29128 ft 377 kts 127°
2026-04-25 16:48 -32.72804 -61.99787 29129 ft 378 kts 127°
2026-04-25 16:48 -32.75878 -61.94701 29130 ft 379 kts 127°
2026-04-25 16:49 -32.78929 -61.89648 29131 ft 379 kts 127°
2026-04-25 16:49 -32.82525 -61.83683 29132 ft 380 kts 127°
2026-04-25 16:50 -32.85590 -61.78589 29134 ft 380 kts 127°
2026-04-25 16:50 -32.88144 -61.74341 29134 ft 381 kts 127°
2026-04-25 16:51 -32.91216 -61.69224 29135 ft 381 kts 127°
2026-04-25 16:51 -32.93770 -61.64965 29135 ft 381 kts 127°
2026-04-25 16:52 -32.97364 -61.58963 29137 ft 382 kts 127°
2026-04-25 16:52 -33.00430 -61.53834 29137 ft 381 kts 127°
2026-04-25 16:53 -33.05013 -61.46158 29136 ft 377 kts 126°
2026-04-25 16:54 -33.08024 -61.41103 29136 ft 374 kts 126°
2026-04-25 16:54 -33.11011 -61.36084 29131 ft 370 kts 126°
2026-04-25 16:55 -33.13966 -61.31110 29123 ft 365 kts 126°
2026-04-25 16:55 -33.16877 -61.26205 29124 ft 362 kts 126°
2026-04-25 16:56 -33.19768 -61.21328 29125 ft 359 kts 126°
2026-04-25 16:56 -33.22642 -61.16473 29125 ft 358 kts 126°
2026-04-25 16:57 -33.25502 -61.11634 29126 ft 358 kts 126°
2026-04-25 16:57 -33.28366 -61.06782 29126 ft 358 kts 126°
2026-04-25 16:58 -33.31232 -61.01921 29127 ft 360 kts 126°
2026-04-25 16:58 -33.34118 -60.97021 29026 ft 365 kts 126°
2026-04-25 16:59 -33.37515 -60.91242 29020 ft 366 kts 126°
2026-04-25 16:59 -33.39965 -60.87071 29020 ft 366 kts 126°
2026-04-25 17:00 -33.42881 -60.82097 29021 ft 367 kts 126°
2026-04-25 17:00 -33.45807 -60.77100 29021 ft 367 kts 126°
2026-04-25 17:01 -33.48740 -60.72085 29022 ft 368 kts 126°
2026-04-25 17:01 -33.51648 -60.67106 29023 ft 368 kts 126°
2026-04-25 17:02 -33.54591 -60.62059 29023 ft 369 kts 126°
2026-04-25 17:02 -33.57517 -60.57036 29024 ft 369 kts 126°
2026-04-25 17:03 -33.60926 -60.51175 29025 ft 369 kts 126°
2026-04-25 17:03 -33.63863 -60.46117 29026 ft 369 kts 126°
2026-04-25 17:04 -33.66293 -60.41927 29026 ft 370 kts 126°
2026-04-25 17:04 -33.69232 -60.36853 29027 ft 370 kts 126°
2026-04-25 17:05 -33.72160 -60.31791 29019 ft 370 kts 125°
2026-04-25 17:05 -33.76537 -60.24211 29019 ft 369 kts 125°
2026-04-25 17:06 -33.79464 -60.19133 29020 ft 369 kts 125°
2026-04-25 17:06 -33.82368 -60.14087 29021 ft 369 kts 125°
2026-04-25 17:07 -33.85292 -60.09002 29021 ft 369 kts 125°
2026-04-25 17:07 -33.88182 -60.03966 29021 ft 369 kts 125°
2026-04-25 17:08 -33.91087 -59.98898 29023 ft 369 kts 125°
2026-04-25 17:08 -33.94008 -59.93795 29023 ft 369 kts 125°
2026-04-25 17:09 -33.96913 -59.88714 29024 ft 369 kts 125°
2026-04-25 17:09 -33.99818 -59.83624 29024 ft 369 kts 125°
2026-04-25 17:10 -34.03208 -59.77677 29025 ft 370 kts 125°
2026-04-25 17:10 -34.05615 -59.73447 29027 ft 370 kts 125°
2026-04-25 17:11 -34.08521 -59.68335 29027 ft 370 kts 125°
2026-04-25 17:11 -34.11433 -59.63206 29021 ft 370 kts 125°
2026-04-25 17:12 -34.14331 -59.58093 29022 ft 370 kts 125°
2026-04-25 17:12 -34.17209 -59.53007 29022 ft 370 kts 125°
2026-04-25 17:13 -34.19626 -59.48731 29022 ft 369 kts 125°
2026-04-25 17:13 -34.22962 -59.42720 29023 ft 370 kts 123°
2026-04-25 17:14 -34.25708 -59.37524 29024 ft 370 kts 123°
2026-04-25 17:14 -34.28477 -59.32268 29016 ft 370 kts 122°
2026-04-25 17:15 -34.31679 -59.26179 29016 ft 369 kts 122°
2026-04-25 17:15 -34.34435 -59.20929 29016 ft 368 kts 122°
2026-04-25 17:16 -34.36709 -59.16593 29017 ft 368 kts 122°
2026-04-25 17:16 -34.39896 -59.10508 29018 ft 368 kts 122°
2026-04-25 17:17 -34.42182 -59.06134 29019 ft 368 kts 122°
2026-04-25 17:17 -34.46174 -59.01255 28327 ft 343 kts 167°
2026-04-25 17:18 -34.47689 -59.00941 27979 ft 329 kts 188°
2026-04-25 17:18 -34.49699 -59.01616 28003 ft 282 kts 220°
2026-04-25 17:18 -34.50914 -59.03215 28013 ft 239 kts 254°
2026-04-25 17:18 -34.50922 -59.05594 28028 ft 204 kts 290°
2026-04-25 17:19 -34.50606 -59.06666 28025 ft 196 kts 293°
2026-04-25 17:19 -34.50126 -59.08166 27851 ft 196 kts 294°
2026-04-25 17:19 -34.49598 -59.09795 27087 ft 218 kts 294°
2026-04-25 17:19 -34.48763 -59.12122 26082 ft 239 kts 307°
2026-04-25 17:20 -34.47904 -59.13012 25576 ft 249 kts 329°
2026-04-25 17:20 -34.45547 -59.13249 24581 ft 277 kts
2026-04-25 17:20 -34.43669 -59.12660 23833 ft 285 kts
2026-04-25 17:20 -34.42407 -59.12248 23336 ft 288 kts
2026-04-25 17:21 -34.40463 -59.12021 22572 ft 281 kts 346°
2026-04-25 17:21 -34.38331 -59.13659 21563 ft 280 kts 308°
2026-04-25 17:21 -34.37622 -59.14941 21078 ft 282 kts 304°
2026-04-25 17:21 -34.36270 -59.17633 20078 ft 284 kts 303°
2026-04-25 17:22 -34.35417 -59.19778 19305 ft 290 kts 285°
2026-04-25 17:22 -34.35338 -59.20588 19054 ft 293 kts 275°
2026-04-25 17:22 -34.36135 -59.23744 18061 ft 304 kts 246°
2026-04-25 17:22 -34.37305 -59.26801 17036 ft 300 kts 261°
2026-04-25 17:23 -34.37341 -59.28442 16524 ft 294 kts 281°
2026-04-25 17:23 -34.36619 -59.30721 15767 ft 289 kts 299°
2026-04-25 17:23 -34.35673 -59.32846 15014 ft 288 kts 300°
2026-04-25 17:23 -34.34723 -59.34935 14380 ft 283 kts 300°
2026-04-25 17:24 -34.33601 -59.36805 13853 ft 274 kts 321°
2026-04-25 17:24 -34.31268 -59.37666 13157 ft 266 kts
2026-04-25 17:24 -34.30118 -59.37236 12815 ft 265 kts 27°
2026-04-25 17:24 -34.28853 -59.35671 12296 ft 265 kts 61°
2026-04-25 17:25 -34.28536 -59.33491 11775 ft 266 kts 95°
2026-04-25 17:25 -34.29151 -59.31390 11275 ft 266 kts 115°
2026-04-25 17:25 -34.30334 -59.28854 10750 ft 260 kts 120°
2026-04-25 17:25 -34.31272 -59.27000 10374 ft 256 kts 121°
2026-04-25 17:26 -34.32198 -59.25209 10119 ft 250 kts 121°
2026-04-25 17:26 -34.33124 -59.23432 9909 ft 249 kts 121°
2026-04-25 17:26 -34.33739 -59.22256 9775 ft 249 kts 121°
2026-04-25 17:26 -34.34979 -59.19888 9505 ft 247 kts 122°
2026-04-25 17:27 -34.35591 -59.18720 9371 ft 247 kts 122°
2026-04-25 17:27 -34.36818 -59.16381 9104 ft 246 kts 122°
2026-04-25 17:27 -34.37730 -59.14642 8898 ft 246 kts 122°
2026-04-25 17:27 -34.38036 -59.14058 8831 ft 246 kts 122°
2026-04-25 17:28 -34.39252 -59.11735 8564 ft 246 kts 122°
2026-04-25 17:28 -34.40467 -59.09414 8298 ft 245 kts 122°
2026-04-25 17:28 -34.41076 -59.08248 8164 ft 245 kts 122°
2026-04-25 17:28 -34.41986 -59.06508 7964 ft 245 kts 122°
2026-04-25 17:29 -34.43200 -59.04184 7697 ft 245 kts 122°
2026-04-25 17:29 -34.44114 -59.02433 7496 ft 244 kts 122°
2026-04-25 17:29 -34.45021 -59.00693 7298 ft 247 kts 122°
2026-04-25 17:29 -34.45644 -58.99499 7163 ft 248 kts 122°
2026-04-25 17:30 -34.46557 -58.97747 6967 ft 250 kts 122°
2026-04-25 17:30 -34.47796 -58.95369 6700 ft 250 kts 122°
2026-04-25 17:30 -34.48734 -58.93570 6485 ft 251 kts 123°
2026-04-25 17:30 -34.49359 -58.92367 6352 ft 251 kts 123°
2026-04-25 17:31 -34.50289 -58.90581 6153 ft 251 kts 123°
2026-04-25 17:31 -34.51215 -58.88800 5954 ft 251 kts 123°
2026-04-25 17:31 -34.52460 -58.86404 5686 ft 251 kts 123°
2026-04-25 17:31 -34.53380 -58.84633 5488 ft 250 kts 123°
2026-04-25 17:32 -34.54311 -58.82839 5288 ft 250 kts 123°
2026-04-25 17:32 -34.54847 -58.80844 5070 ft 251 kts 90°
2026-04-25 17:32 -34.54594 -58.79488 4933 ft 251 kts 65°
2026-04-25 17:32 -34.52898 -58.77749 4655 ft 241 kts 14°
2026-04-25 17:33 -34.51281 -58.77862 4459 ft 234 kts 343°
2026-04-25 17:33 -34.49749 -58.78463 4307 ft 229 kts 340°
2026-04-25 17:33 -34.48254 -58.79078 4155 ft 226 kts 340°
2026-04-25 17:33 -34.47263 -58.79398 4050 ft 225 kts 351°
2026-04-25 17:34 -34.45179 -58.79284 3847 ft 223 kts
2026-04-25 17:34 -34.43663 -58.78947 3697 ft 222 kts 10°
2026-04-25 17:34 -34.42644 -58.78701 3596 ft 221 kts 11°
2026-04-25 17:34 -34.41149 -58.78337 3447 ft 220 kts 11°
2026-04-25 17:35 -34.39659 -58.77976 3298 ft 220 kts 11°
2026-04-25 17:35 -34.37654 -58.77489 3097 ft 219 kts 10°
2026-04-25 17:35 -34.36193 -58.77134 3034 ft 215 kts 10°
2026-04-25 17:35 -34.34745 -58.76783 3028 ft 209 kts 10°
2026-04-25 17:36 -34.33428 -58.76151 3022 ft 206 kts 39°
2026-04-25 17:36 -34.32768 -58.75303 3027 ft 204 kts 53°
2026-04-25 17:36 -34.32161 -58.73784 3028 ft 202 kts 72°
2026-04-25 17:36 -34.31809 -58.72131 3028 ft 200 kts 77°
2026-04-25 17:37 -34.31531 -58.70487 3029 ft 199 kts 78°
2026-04-25 17:37 -34.31181 -58.68315 3029 ft 197 kts 79°
2026-04-25 17:37 -34.31009 -58.67236 3029 ft 197 kts 79°
2026-04-25 17:37 -34.30660 -58.65059 3029 ft 196 kts 79°
2026-04-25 17:38 -34.30489 -58.63993 3029 ft 196 kts 78°
2026-04-25 17:38 -34.30315 -58.62907 3029 ft 196 kts 79°
2026-04-25 17:38 -34.29882 -58.60210 3029 ft 195 kts 78°
2026-04-25 17:38 -34.29624 -58.58599 3029 ft 195 kts 78°
2026-04-25 17:39 -34.29365 -58.56990 3029 ft 195 kts 78°
2026-04-25 17:39 -34.29108 -58.55391 3029 ft 195 kts 78°
2026-04-25 17:39 -34.28934 -58.54314 3029 ft 195 kts 78°
2026-04-25 17:39 -34.28595 -58.52141 2930 ft 200 kts 84°
2026-04-25 17:40 -34.28729 -58.51037 2843 ft 202 kts 111°
2026-04-25 17:40 -34.29457 -58.49609 2721 ft 204 kts 134°
2026-04-25 17:40 -34.30949 -58.48185 2555 ft 206 kts 147°
2026-04-25 17:40 -34.32155 -58.47255 2445 ft 205 kts 149°
2026-04-25 17:41 -34.33356 -58.46773 2416 ft 172 kts 182°
2026-04-25 17:41 -34.34476 -58.47042 2283 ft 159 kts 200°
2026-04-25 17:41 -34.35132 -58.47405 2189 ft 149 kts 211°
2026-04-25 17:41 -34.36169 -58.48345 2039 ft 133 kts 221°
2026-04-25 17:42 -34.36634 -58.48824 1981 ft 128 kts 223°
2026-04-25 17:42 -34.37282 -58.49525 1881 ft 124 kts 224°
2026-04-25 17:42 -34.37911 -58.50237 1778 ft 122 kts 226°
2026-04-25 17:42 -34.38723 -58.51183 1644 ft 120 kts 226°
2026-04-25 17:43 -34.39124 -58.51653 1576 ft 120 kts 226°
2026-04-25 17:43 -34.39715 -58.52347 1505 ft 109 kts 226°
2026-04-25 17:43 -34.40364 -58.53109 1307 ft 93 kts 227°
2026-04-25 17:43 -34.40825 -58.53650 1158 ft 92 kts 226°
2026-04-25 17:44 -34.41283 -58.54187 1007 ft 91 kts 226°
2026-04-25 17:44 -34.41584 -58.54540 906 ft 90 kts 227°
2026-04-25 17:44 -34.42031 -58.55065 755 ft 89 kts 227°
2026-04-25 17:44 -34.42609 -58.55742 616 ft 83 kts 226°
2026-04-25 17:45 -34.43037 -58.56214 546 ft 81 kts 226°
2026-04-25 17:45 -34.43177 -58.56376 514 ft 81 kts 227°
2026-04-25 17:45 -34.43814 -58.57117 365 ft 74 kts 225°
2026-04-25 17:45 -34.44185 -58.57558 266 ft 75 kts 228°
2026-04-25 17:46 -34.44441 -58.57867 184 ft 76 kts 227°
2026-04-25 17:46 -34.44808 -58.58305 65 ft 70 kts 228°
2026-04-25 17:46 -34.45207 -58.58799 18 ft 50 kts 225°
2026-04-25 17:46 -34.45428 -58.59056 18 ft 38 kts 224°
2026-04-25 17:47 -34.45594 -58.59252 18 ft 28 kts 224°
2026-04-25 17:47 -34.45689 -58.59292 18 ft 12 kts 152°
2026-04-25 17:47 -34.45755 -58.59248 18 ft 9 kts 150°
2026-04-25 17:47 -34.45802 -58.59217 18 ft 5 kts 149°
2026-04-25 17:48 -34.45823 -58.59133 18 ft 11 kts 63°
2026-04-25 17:48 -34.45775 -58.59017 18 ft 9 kts 62°
2026-04-25 17:48 -34.45786 -58.58964 18 ft 9 kts 148°
2026-04-25 17:49 -34.45786 -58.58918 18 ft 9 kts 71°
2026-04-25 17:49 -34.45763 -58.58875 18 ft 0 kts 17°